Starlink 1363

operational
NORAD ID: 45568 Int'l Des: 2020-025 Owner: SPXS Country: US Constellation: starlink
LEOCIRCULARSTARLINK_TYPE

关于 Starlink 1363

正在加载描述...

实时位置

正在加载3D地球...

即将过境

高度历史

Altitude vs Time

uPlot chart will show altitude changes over time

两行轨道根数

1 45568U 20025AP 25350.00778385 .00099722 00000-0 17252-2 0 9998
2 45568 53.0508 87.3298 0005561 266.1027 93.9345 15.50153785312963
Epoch: Dec 16, 2025 • Age: 25 hours

当前状态

高度 417.3 km
速度 7.66 km/s
星下点 16.97°N, 5.88°W
发射日期 Apr 22, 2020
运行时间 5.6 years
类型 internet

技术详情

分类 Payload
质量 260.00 kg
干质量 248.00 kg
总质量 260.00 kg
长度 0.20 m
直径 2.80 m
跨度 9.00 m
形状 Box + pan
制造商 SPXS
平台类型 Starlink
阶段状态 In Orbit
所有者/国家 SPXS/US

大型星座

Loading constellations...